Weather History for Killeen/Ft Hood, TX

Change the Weather History Date:

Wednesday, September 17, 2014

  Actual Average Record
Temperature  
Mean Temperature 84 °F -  
Max Temperature 98 °F 87 °F 102 °F (1997)
Min Temperature 73 °F 68 °F 66 °F (2012)
Cooling Degree Days 20    
Growing Degree Days 34 (Base 50)    
Moisture  
Dew Point 72 °F    
Average Humidity 78    
Maximum Humidity 94    
Minimum Humidity 40    
Precipitation  
Precipitation 0.67 in - - ()
Sea Level Pressure  
Sea Level Pressure 29.97 in    
Wind  
Wind Speed 4 mph (ESE)    
Max Wind Speed 20 mph    
Max Gust Speed 28 mph    
Visibility 9 miles    
Events Thunderstorm    
Averages and records for this station are not official NWS values.
T = Trace of Precipitation, MM = Missing Value Source: NWS Daily Summary

Daily Weather History Graph

Daily Weather History Graph

Search for Another Location

Airport:

Trip Planner

Search our weather history database for the weather conditions in past years. The results will help you decide how hot, cold, wet, or windy it might be!

Date:

Astronomy

Sep. 17, 2014 Rise Set
Actual Time 7:16 AM CDT 7:33 PM CDT
Civil Twilight 6:52 AM CDT 7:58 PM CDT
Nautical Twilight 6:23 AM CDT 8:26 PM CDT
Astronomical Twilight 5:54 AM CDT 8:54 PM CDT
Moon 1:33 AM CDT (9/17) 3:29 PM CDT (9/17)
Length of Visible Light 13h 06m
Length of Day
12h 17m
Waning Crescent, 34% of the Moon is Illuminated
Sep 17
Waning Crescent
Sep 24
New
Oct 1
First Quarter
Oct 8
Full
Oct 15
Last Quarter

Hourly Weather History & Observations

Time (CDT) Temp. Heat Index Dew Point Humidity Pressure Visibility Wind Dir Wind Speed Gust Speed Precip Events Conditions
12:56 AM 75.0 °F - 72.0 °F 90% 30.01 in 10.0 mi Calm Calm - N/A   Clear
1:56 AM 73.9 °F - 71.1 °F 91% 30.05 in 10.0 mi Calm Calm - N/A   Clear
2:56 AM 75.0 °F - 72.0 °F 90% 29.99 in 10.0 mi SSE 3.5 mph - N/A   Clear
3:56 AM 75.0 °F - 72.0 °F 90% 29.98 in 10.0 mi SSE 3.5 mph - N/A   Clear
4:15 AM 75.2 °F - 71.6 °F 89% 29.98 in 10.0 mi SSE 4.6 mph - N/A   Partly Cloudy
4:28 AM 75.2 °F - 71.6 °F 89% 29.97 in 10.0 mi SSE 4.6 mph - N/A   Mostly Cloudy
4:56 AM 75.0 °F - 72.0 °F 90% 29.97 in 10.0 mi SE 3.5 mph - N/A   Overcast
5:56 AM 75.0 °F - 72.0 °F 90% 29.97 in 10.0 mi Calm Calm - N/A   Overcast
6:56 AM 75.9 °F - 72.0 °F 87% 29.98 in 10.0 mi Calm Calm - N/A   Overcast
7:08 AM 75.2 °F - 73.4 °F 94% 29.98 in 10.0 mi ESE 3.5 mph - N/A   Overcast
7:56 AM 75.9 °F - 73.0 °F 91% 29.99 in 10.0 mi Calm Calm - N/A   Overcast
8:01 AM 75.2 °F - 73.4 °F 94% 29.99 in 10.0 mi Calm Calm - N/A   Overcast
8:56 AM 77.0 °F - 73.0 °F 88% 29.99 in 10.0 mi Calm Calm - N/A   Overcast
9:17 AM 78.8 °F - 73.4 °F 83% 30.00 in 10.0 mi ESE 3.5 mph - N/A   Overcast
9:56 AM 79.0 °F - 73.0 °F 82% 30.00 in 10.0 mi Calm Calm - N/A   Overcast
10:56 AM 82.9 °F 88.0 °F 72.0 °F 69% 30.00 in 10.0 mi Calm Calm - N/A   Overcast
11:56 AM 89.1 °F 95.0 °F 71.1 °F 55% 29.98 in 10.0 mi WSW 6.9 mph - N/A   Mostly Cloudy
12:10 PM 87.8 °F 93.8 °F 71.6 °F 58% 29.97 in 10.0 mi WSW 3.5 mph - N/A   Scattered Clouds
12:56 PM 89.1 °F 95.0 °F 71.1 °F 55% 29.96 in 10.0 mi Calm Calm - N/A   Scattered Clouds
1:56 PM 93.9 °F 100.3 °F 70.0 °F 46% 29.92 in 10.0 mi SSE 3.5 mph - N/A   Clear
2:56 PM 96.1 °F 101.6 °F 69.1 °F 41% 29.89 in 10.0 mi SSE 4.6 mph - N/A   Scattered Clouds
3:56 PM 96.1 °F 101.0 °F 68.0 °F 40% 29.92 in 10.0 mi Variable 4.6 mph - N/A   Mostly Cloudy
4:56 PM 93.9 °F 97.5 °F 66.9 °F 41% 29.90 in 10.0 mi ESE 4.6 mph - N/A   Partly Cloudy
5:56 PM 88.0 °F 92.9 °F 70.0 °F 55% 29.92 in 10.0 mi SSE 12.7 mph 20.7 mph N/A   Mostly Cloudy
6:56 PM 87.1 °F 93.6 °F 72.0 °F 61% 29.93 in 10.0 mi SE 6.9 mph - N/A   Partly Cloudy
7:56 PM 84.9 °F 90.7 °F 72.0 °F 65% 29.94 in 10.0 mi Calm Calm - N/A   Scattered Clouds
8:37 PM 82.4 °F 88.2 °F 73.4 °F 74% 29.89 in 10.0 mi North 4.6 mph - N/A Thunderstorm Thunderstorm
8:54 PM 82.4 °F 88.2 °F 73.4 °F 74% 29.90 in 10.0 mi NE 13.8 mph 19.6 mph N/A   Overcast
8:56 PM 82.0 °F 87.4 °F 73.0 °F 74% 29.96 in 10.0 mi NE 12.7 mph 19.6 mph N/A   Overcast
9:28 PM 75.2 °F - 73.4 °F 94% 29.93 in 10.0 mi NE 10.4 mph 16.1 mph 0.08 in Thunderstorm Thunderstorm
9:54 PM 75.2 °F - 71.6 °F 89% 29.95 in 4.0 mi East 12.7 mph 27.6 mph 0.24 in Thunderstorm Overcast
9:56 PM 75.0 °F - 72.0 °F 90% 30.02 in 4.0 mi ENE 19.6 mph 27.6 mph 0.26 in Thunderstorm Overcast
10:35 PM 73.4 °F - 69.8 °F 88% 29.96 in 6.0 mi Variable 5.8 mph - 0.22 in Thunderstorm Overcast
10:48 PM 73.4 °F - 71.6 °F 94% 29.96 in 5.0 mi East 9.2 mph - 0.29 in Thunderstorm Overcast
10:56 PM 73.9 °F - 71.1 °F 91% 30.02 in 6.0 mi East 10.4 mph - 0.32 in Thunderstorm Overcast
11:13 PM 73.4 °F - 71.6 °F 94% 29.96 in 10.0 mi ESE 6.9 mph - 0.02 in Thunderstorm Thunderstorm
11:46 PM 73.4 °F - 71.6 °F 94% 29.94 in 8.0 mi ESE 8.1 mph - 0.07 in   Overcast
11:56 PM 73.9 °F - 72.0 °F 93% 30.00 in 9.0 mi ESE 6.9 mph - 0.09 in   Overcast